Wind_Speed
9 10 10 10 10 12 11 10 9 9 8 7 7 7 5 6 8 7 5 7 8 9 10 11 11 12 12 13 12 11 10 9 9 10 10 9 10 12 12 14 15 15 16
11 11 9 10 11 11 11 11 9 8 8 9 8 10 10 10 11 7 8 10 10 11 12 11 12 12 11 12 13 11 9 10 9 9 8 8 9 11 11 12 13 13 13
10 9 10 10 13 12 10 9 9 10 12 14 14 13 13 16 16 14 9 11 12 14 13 13 13 12 12 11 12 11 11 10 9 8 8 8 9 10 11 11 11 11 11
11 8 8 12 12 12 11 10 9 10 13 15 13 15 13 14 13 15 13 10 12 16 15 14 15 13 12 11 12 12 12 11 10 9 9 8 9 9 11 11 10 9 9
12 10 9 10 12 13 13 12 11 13 14 15 14 12 11 15 15 16 16 14 14 21 18 17 16 15 13 12 13 14 13 12 12 10 9 8 9 10 10 11 10 9 8
14 13 12 12 13 15 15 14 14 13 13 12 14 11 9 13 15 16 16 16 13 20 22 19 17 17 17 15 14 14 16 14 14 12 10 10 10 10 10 11 11 10 8
15 14 13 12 14 14 14 14 14 14 13 11 13 14 12 13 14 15 18 19 17 17 19 20 19 18 17 18 17 16 16 16 15 13 12 12 12 11 11 11 11 11 11
17 17 16 17 16 16 13 14 15 15 15 13 14 11 7 9 11 15 16 18 19 21 21 20 21 22 18 22 21 20 18 18 17 16 15 14 14 13 12 12 12 12 12
19 22 21 20 19 19 18 16 16 16 15 13 14 12 4 6 2 5 14 18 20 22 23 24 22 22 23 21 24 24 23 21 20 17 17 16 16 15 14 14 13 13 14
18 20 23 23 21 21 21 19 19 17 18 17 15 16 16 14 5 2 5 10 19 19 24 25 25 23 23 25 26 27 26 24 24 20 19 18 17 16 16 15 15 15 15
24 21 20 21 22 21 22 22 21 20 20 20 19 17 16 15 16 12 8 8 6 16 20 24 25 23 24 27 27 28 31 29 30 25 23 20 19 17 17 17 17 17 16
27 25 25 26 24 23 23 22 23 22 23 23 23 21 19 17 15 14 15 15 12 12 11 23 25 26 24 25 30 30 30 32 32 32 34 27 23 20 18 18 18 18 18
28 28 26 28 26 26 25 25 26 24 24 25 26 24 21 19 17 17 17 15 14 12 9 14 18 25 25 26 27 31 31 30 33 34 35 36 31 26 21 20 19 19 19
29 27 24 25 25 25 27 27 29 30 28 28 28 27 25 22 17 16 17 15 15 15 15 14 15 17 20 26 29 29 31 31 32 34 35 36 36 33 28 24 22 21 21
24 25 26 25 26 26 26 27 29 28 25 21 31 28 28 24 21 14 15 19 18 12 14 15 13 13 16 19 20 26 30 32 33 32 34 35 37 35 32 29 26 24 23
23 24 26 28 28 30 29 28 28 25 24 23 25 28 28 26 25 22 21 21 21 23 22 19 16 14 12 14 17 20 26 30 30 32 32 34 37 37 35 33 30 27 26
19 16 18 22 26 25 20 20 23 26 25 24 23 25 26 27 25 25 24 23 24 24 25 28 23 20 20 17 17 16 19 28 30 31 34 33 34 35 35 35 34 30 28
21 22 21 22 24 25 22 22 22 21 20 20 18 21 22 24 25 22 19 19 20 21 23 27 25 24 24 21 19 20 18 19 26 28 32 35 34 34 35 35 36 34 29
20 22 22 19 18 20 19 18 18 17 18 15 15 17 19 20 19 17 17 19 20 20 23 25 23 25 23 22 22 22 23 21 21 25 29 33 35 35 34 35 37 37 33
16 17 17 18 18 17 17 18 18 17 16 16 16 17 16 17 16 15 16 18 20 23 24 26 28 27 25 25 25 25 25 24 24 21 24 31 35 36 36 35 36 36 35
15 15 16 17 18 18 18 18 17 16 16 16 17 17 16 16 15 15 16 17 20 21 20 22 25 27 27 27 24 29 29 29 24 22 20 21 32 35 37 37 36 37 36
15 15 15 16 18 18 18 16 16 15 15 16 16 16 16 16 15 14 14 15 18 15 17 17 20 23 23 28 25 24 28 27 29 28 28 23 23 25 30 32 36 37 36
15 15 14 15 16 16 16 16 16 15 16 16 15 15 16 15 12 13 13 14 13 10 10 13 15 14 17 15 23 23 25 24 28 26 22 24 22 25 28 38 38 34 35
15 14 14 14 14 14 15 16 17 17 17 16 16 16 16 15 15 14 14 13 11 9 6 6 8 10 10 13 13 17 20 19 22 26 25 30 29 30 26 31 38 38 36
15 13 14 14 14 13 13 15 17 18 19 17 17 16 16 17 17 17 16 14 13 11 8 7 6 6 6 6 9 15 19 23 21 22 21 26 29 30 28 28 31 35 39
14 12 13 14 13 13 15 15 17 19 20 20 18 18 19 18 16 18 18 17 15 13 12 12 10 9 8 10 10 11 14 12 15 11 12 18 29 29 20 29 35 27 30
Wind_Direction
182 188 187 185 181 184 192 200 206 212 213 235 232 204 190 196 183 173 192 192 191 186 185 183 178 173 169 172 171 168 158 153 148 137 136 128 128 127 122 119 117 113 110
202 199 201 202 195 187 194 205 211 217 221 225 228 215 207 199 199 221 242 225 213 206 195 192 190 183 177 179 173 174 175 165 158 149 149 140 139 142 136 130 125 122 118
202 210 213 206 197 195 198 202 204 215 226 230 225 228 237 233 234 234 246 217 215 209 202 197 191 195 191 187 187 182 178 176 173 163 161 153 153 155 151 144 139 135 125
207 205 201 186 190 196 208 222 227 231 244 250 249 240 257 240 225 234 236 226 225 210 205 198 195 195 196 196 200 195 184 188 188 182 172 168 163 164 166 160 156 149 139
218 222 216 207 208 217 229 240 251 261 269 262 279 279 259 237 237 228 231 234 237 213 205 208 204 204 206 207 205 201 195 200 200 190 184 191 183 177 178 176 173 169 162
223 233 238 232 234 238 244 250 258 267 272 272 267 270 258 239 239 230 225 233 236 217 217 216 213 212 209 221 214 210 203 203 208 198 194 203 203 190 190 187 187 190 189
223 233 236 237 242 249 256 263 264 265 271 283 262 266 260 256 249 239 229 229 225 218 217 218 219 215 220 220 216 214 214 205 211 208 203 208 208 203 200 201 198 202 208
228 233 237 245 246 252 252 257 266 271 272 264 260 267 267 255 248 243 233 229 231 224 221 221 225 227 221 222 219 209 214 215 214 212 212 212 210 210 209 211 210 212 215
232 232 238 242 247 252 255 257 265 273 274 269 256 243 243 242 276 243 231 230 235 229 226 223 225 229 228 220 222 218 215 213 217 214 215 214 217 215 216 220 222 223 224
234 234 239 242 248 253 256 257 262 270 272 267 254 246 253 257 276 255 233 241 237 235 229 231 232 230 228 225 223 225 220 218 223 223 221 219 223 221 222 225 229 230 230
238 243 244 244 248 253 257 257 259 264 269 261 255 253 257 256 260 261 266 268 247 239 234 234 237 233 230 229 226 226 226 224 226 227 225 226 228 229 231 230 233 234 233
242 246 252 244 248 255 255 258 260 264 267 265 259 252 253 251 261 260 262 266 273 269 252 241 237 237 232 232 233 231 230 230 229 230 231 228 235 233 235 236 237 239 241
247 251 255 250 256 255 258 260 260 257 262 265 260 256 256 256 253 262 259 266 267 271 267 237 239 239 239 238 237 237 236 231 232 232 232 231 233 237 237 240 242 243 245
258 258 258 252 255 257 260 262 260 258 259 268 261 256 251 253 254 262 259 256 266 267 265 259 245 245 247 246 244 242 238 235 233 232 230 231 231 235 238 240 240 243 246
258 254 250 253 257 257 255 255 256 260 265 292 259 248 248 248 249 260 268 253 255 255 273 269 264 260 252 251 249 244 239 238 233 234 231 230 230 233 235 237 238 238 244
259 260 247 249 255 259 267 263 263 256 261 273 255 251 247 246 249 255 264 262 252 250 255 259 269 273 261 257 249 247 243 238 237 232 231 230 228 230 233 235 238 238 240
241 253 255 253 259 266 272 260 264 263 258 263 252 253 246 249 252 261 263 256 253 252 250 260 268 273 267 265 257 257 247 237 236 232 230 231 231 232 232 234 234 237 241
249 245 250 250 251 256 257 260 259 260 257 261 257 250 248 250 258 259 254 257 259 260 257 262 263 262 265 261 261 255 251 238 237 239 234 233 232 234 236 238 235 238 241
245 243 242 252 250 255 257 257 253 255 256 252 250 246 248 248 248 249 257 261 264 261 258 259 257 263 261 261 255 251 249 244 237 241 240 235 234 235 238 240 239 237 236
230 236 245 252 253 250 248 246 246 248 250 247 242 241 238 239 245 252 261 272 276 270 261 258 257 255 257 256 252 247 244 245 239 238 243 237 234 235 237 238 239 233 234
227 235 242 245 244 243 241 243 243 244 244 243 242 243 244 242 246 254 268 279 288 276 268 262 259 249 246 246 247 250 246 250 246 241 241 237 234 234 235 237 233 230 233
218 225 229 235 236 238 241 239 235 237 238 238 240 243 244 245 248 256 273 285 299 272 265 259 257 250 248 257 255 250 249 232 242 240 244 234 233 232 233 236 237 237 234
217 225 228 231 234 237 237 231 232 237 239 238 241 243 244 244 252 266 279 291 305 293 270 254 261 266 271 270 265 245 234 240 243 247 247 249 238 241 240 241 241 239 239
220 231 235 237 236 234 227 227 231 236 239 242 243 244 242 242 254 269 277 288 298 301 293 266 264 279 264 265 232 242 247 251 246 245 244 249 247 255 255 247 245 239 236
221 233 239 240 241 238 234 232 232 239 244 246 250 246 245 254 259 260 269 278 282 282 278 270 268 264 261 251 245 254 249 243 242 244 245 253 257 260 261 254 246 239 235
228 232 238 243 248 246 242 241 241 244 248 251 251 252 253 259 264 254 261 265 267 268 268 274 271 262 250 250 259 258 247 241 244 232 248 265 259 251 265 263 242 235 236
Height
1588 1589 1590 1592 1594 1596 1597 1598 1599 1601 1601 1604 1605 1606 1607 1608 1610 1612 1614 1614 1616 1616 1617 1618 1619 1621 1623 1624 1626 1629 1630 1631 1632 1633 1635 1636 1637 1638 1639 1639 1640 1640 1640
1588 1588 1589 1591 1593 1595 1597 1598 1600 1601 1602 1603 1605 1606 1607 1608 1610 1611 1612 1614 1615 1616 1617 1618 1619 1620 1622 1624 1625 1628 1630 1632 1633 1634 1636 1637 1638 1639 1640 1641 1642 1643 1643
1588 1589 1589 1590 1592 1595 1596 1597 1598 1600 1599 1599 1600 1599 1601 1606 1607 1609 1610 1612 1613 1615 1616 1617 1618 1620 1622 1624 1625 1627 1630 1631 1633 1635 1636 1637 1639 1640 1641 1642 1644 1645 1645
1587 1588 1589 1590 1591 1593 1595 1596 1597 1598 1595 1598 1595 1600 1602 1603 1605 1606 1608 1609 1611 1613 1614 1616 1618 1619 1621 1623 1625 1626 1628 1631 1632 1635 1636 1638 1639 1641 1642 1643 1645 1646 1646
1586 1587 1588 1590 1591 1593 1594 1594 1595 1596 1596 1597 1597 1597 1598 1599 1602 1603 1605 1606 1608 1609 1612 1614 1617 1618 1619 1622 1624 1626 1628 1630 1632 1634 1635 1637 1639 1640 1642 1643 1645 1646 1647
1584 1586 1587 1589 1590 1591 1592 1592 1593 1594 1594 1595 1595 1595 1594 1597 1599 1599 1602 1601 1605 1607 1609 1611 1614 1617 1618 1621 1622 1624 1626 1628 1630 1632 1634 1637 1638 1639 1641 1642 1644 1646 1647
1582 1584 1586 1587 1588 1589 1590 1590 1591 1592 1593 1592 1593 1594 1594 1595 1595 1596 1597 1597 1601 1604 1606 1608 1611 1613 1616 1617 1619 1622 1624 1625 1628 1630 1632 1635 1637 1638 1639 1641 1643 1644 1646
1580 1582 1583 1585 1587 1588 1588 1589 1589 1590 1590 1590 1591 1592 1592 1592 1591 1591 1591 1594 1594 1599 1602 1605 1607 1609 1612 1614 1616 1619 1621 1622 1625 1627 1630 1633 1635 1636 1638 1640 1641 1642 1644
1576 1578 1580 1582 1584 1585 1586 1586 1587 1588 1589 1589 1589 1591 1590 1589 1589 1589 1588 1590 1591 1594 1598 1600 1603 1605 1607 1610 1612 1614 1617 1619 1622 1624 1627 1630 1632 1634 1635 1637 1639 1640 1642
1572 1575 1576 1578 1580 1582 1582 1583 1584 1585 1585 1585 1585 1586 1587 1588 1588 1588 1587 1587 1588 1589 1592 1595 1598 1600 1603 1605 1607 1610 1612 1615 1618 1621 1624 1626 1628 1630 1632 1634 1636 1638 1639
1569 1571 1573 1575 1576 1577 1579 1579 1580 1581 1582 1583 1582 1583 1583 1584 1584 1586 1585 1585 1585 1585 1587 1590 1592 1594 1597 1599 1601 1604 1607 1610 1613 1617 1620 1622 1624 1627 1629 1631 1633 1635 1636
1564 1566 1569 1570 1572 1573 1574 1576 1577 1578 1579 1580 1580 1581 1581 1581 1581 1582 1582 1582 1583 1579 1583 1584 1586 1588 1591 1593 1595 1598 1601 1604 1607 1611 1615 1618 1621 1623 1625 1627 1630 1632 1633
1558 1561 1564 1566 1567 1569 1570 1572 1572 1574 1574 1575 1577 1577 1578 1577 1577 1578 1579 1579 1579 1580 1580 1579 1581 1583 1585 1587 1589 1591 1594 1598 1600 1604 1607 1612 1615 1618 1621 1623 1626 1628 1629
1554 1556 1558 1560 1562 1564 1565 1566 1567 1567 1568 1565 1571 1572 1572 1573 1573 1574 1574 1575 1576 1576 1576 1577 1577 1579 1580 1581 1583 1586 1588 1591 1593 1596 1600 1604 1609 1612 1615 1618 1621 1623 1624
1549 1550 1552 1554 1556 1557 1558 1558 1559 1560 1559 1553 1557 1566 1567 1567 1568 1569 1569 1570 1572 1573 1572 1571 1573 1574 1575 1576 1578 1579 1581 1583 1586 1589 1593 1596 1600 1605 1609 1612 1615 1617 1618
1543 1544 1546 1548 1550 1551 1553 1554 1555 1556 1556 1555 1558 1559 1561 1561 1562 1564 1565 1565 1565 1566 1566 1566 1568 1571 1571 1571 1572 1573 1574 1577 1579 1582 1585 1589 1592 1597 1601 1604 1607 1610 1612
1537 1538 1540 1542 1544 1545 1548 1547 1547 1548 1551 1553 1554 1554 1554 1556 1558 1559 1559 1559 1559 1560 1559 1559 1562 1564 1566 1567 1568 1568 1569 1570 1572 1575 1578 1582 1586 1589 1593 1596 1600 1602 1604
1530 1532 1535 1536 1538 1537 1542 1542 1542 1542 1544 1545 1547 1549 1550 1552 1554 1554 1555 1555 1555 1554 1554 1553 1555 1557 1558 1560 1563 1563 1564 1565 1566 1568 1571 1575 1578 1582 1585 1588 1592 1595 1599
1524 1526 1528 1530 1533 1535 1536 1537 1538 1539 1541 1542 1543 1545 1547 1549 1550 1551 1551 1551 1550 1549 1548 1548 1549 1550 1552 1554 1556 1557 1559 1560 1561 1563 1565 1568 1571 1574 1577 1580 1583 1587 1590
1519 1521 1524 1526 1529 1531 1533 1534 1536 1538 1539 1540 1542 1543 1544 1545 1546 1547 1547 1546 1545 1543 1542 1542 1542 1544 1545 1546 1548 1550 1551 1553 1555 1557 1558 1560 1563 1566 1569 1571 1574 1577 1581
1515 1517 1520 1522 1524 1526 1528 1530 1532 1534 1535 1537 1539 1541 1542 1542 1543 1543 1543 1542 1540 1537 1535 1535 1535 1536 1538 1539 1541 1543 1544 1545 1548 1550 1552 1554 1555 1557 1559 1562 1565 1568 1572
1511 1512 1515 1518 1520 1522 1524 1526 1529 1530 1532 1533 1535 1537 1538 1539 1540 1540 1539 1538 1535 1532 1531 1530 1530 1530 1531 1532 1533 1533 1537 1537 1540 1540 1544 1547 1549 1550 1552 1554 1556 1560 1564
1508 1510 1511 1513 1515 1517 1519 1523 1525 1526 1528 1529 1531 1532 1533 1534 1535 1536 1535 1534 1531 1528 1527 1527 1527 1527 1526 1525 1523 1527 1530 1531 1532 1535 1538 1539 1542 1543 1545 1546 1548 1552 1556
1504 1507 1509 1509 1511 1513 1516 1518 1521 1522 1523 1524 1526 1527 1528 1530 1531 1532 1532 1531 1529 1526 1524 1524 1524 1524 1523 1522 1520 1524 1526 1525 1527 1528 1531 1531 1534 1535 1538 1538 1539 1544 1548
1500 1503 1505 1507 1508 1511 1513 1515 1517 1518 1519 1520 1522 1523 1524 1525 1526 1527 1527 1527 1526 1525 1523 1521 1521 1521 1520 1520 1519 1520 1520 1520 1520 1522 1525 1525 1525 1528 1529 1529 1531 1533 1537
1498 1499 1500 1503 1505 1507 1509 1511 1512 1514 1515 1516 1518 1519 1519 1520 1520 1521 1522 1522 1522 1522 1521 1518 1517 1517 1517 1516 1516 1517 1517 1514 1515 1515 1518 1518 1517 1519 1521 1519 1521 1522 1526